Regional Weather Roundup
Issued by NWS Sterling, VA

Home | Current Version | Previous Version | Graphics & Text | Print | Product List | Glossary On
Versions: 1 2 3 4 5 6 7 8 9 10 11 12 13 14 15 16 17 18 19 20 21 22 23 24 25 26 27 28 29 30 31 32 33 34 35 36 37 38 39 40 41 42 43 44 45 46 47 48 49 50
000
ASUS41 KLWX 160411
RWRLWX

REGIONAL WEATHER ROUNDUP
NATIONAL WEATHER SERVICE BALTIMORE MD/WASHINGTON DC
1100 PM EST SUN JAN 15 2017

Note: "FAIR" indicates few or no clouds below 12,000 feet
with no significant weather and/or obstructions to visibility.
 TC=TEMPERATURE CELSIUS

 * =Non NWS site. Station does not report precipitation (e.g. rain,
    snow, etc.), thunder, or fog.

DCZ001-MDZ009-015-VAZ040>042-051-053>054-160500-
WASHINGTON METRO

CITY           SKY/WX    TMP DP  RH WIND       PRES   REMARKS
WASHINGTON NAT CLOUDY    40  27  59 CALM      30.43S
DULLES         CLOUDY    38  23  55 CALM      30.42R
ANDREWS AFB    CLOUDY    37  28  68 CALM      30.40F
FT BELVOIR     CLOUDY    39  28  63 CALM      30.42S
QUANTICO       CLOUDY    41  32  70 E5        30.44S
COLLEGE PARK*  CLOUDY    34  30  86 CALM      30.42S
LEESBURG*      CLOUDY    39  27  60 MISG      30.42S
GAITHERSBURG*  CLOUDY    32  27  80 CALM      30.45S

$$

MDZ006>007-011-014-160500-
BALTIMORE METRO

CITY           SKY/WX    TMP DP  RH WIND       PRES   REMARKS
BWI AIRPORT    CLOUDY    36  27  69 E6        30.42S
MD SCIENCE CTR   N/A     38  20  48 MISG      30.43S
ANNAPOLIS      CLOUDY    38  32  79 CALM      30.42S
FORT MEADE*    CLOUDY    32  30  93 CALM      30.45S

$$

MDZ012-015-019>023-160500-
MARYLAND EASTERN SHORE

CITY           SKY/WX    TMP DP  RH WIND       PRES   REMARKS
OCEAN CITY     CLOUDY    37  33  85 NW3       30.42S
SALISBURY      CLOUDY    37  29  72 N3        30.42S
BAY BRIDGE AP* CLOUDY    37  27  65 N3        30.43S
CAMBRIDGE*     CLOUDY    36  32  87 CALM      30.42F
EASTON*        CLOUDY    38  29  69 CALM      30.46S

$$

MDZ017>025-160500-
SOUTHERN MARYLAND

CITY           SKY/WX    TMP DP  RH WIND       PRES   REMARKS
PATUXENT RIVER CLOUDY    39  30  70 CALM      30.42S
ST INIGOES     NOT AVBL
LEONARDTOWN*   CLOUDY    36  30  80 CALM      30.43F

$$

MDZ003>005-160500-
NORTH CENTRAL MARYLAND

CITY           SKY/WX    TMP DP  RH WIND       PRES   REMARKS
FREDERICK*     CLOUDY    30  30 100 CALM      30.45S
HAGERSTOWN APT CLEAR     31  21  66 NE6       30.40R
WESTMINSTER*     N/A     27  23  86 CALM      30.40R

$$

MDZ501>502-160500-
WESTERN MARYLAND

CITY           SKY/WX    TMP DP  RH WIND       PRES   REMARKS
OAKLAND*         N/A     32  32 100 CALM      30.28S
CUMBERLAND*    MOCLDY    36  32  87 CALM      30.41

$$

VAZ025>031-160500-
SHENANDOAH VALLEY

CITY           SKY/WX    TMP DP  RH WIND       PRES   REMARKS
WINCHESTER*    CLOUDY    36  25  64 CALM      30.38F
FRONT ROYAL*   NOT AVBL
LURAY*         CLOUDY    37  30  75 NE5       30.37S
NEW MARKET*    CLOUDY    37  25  62 CALM      30.36S
STAUNTON*      CLOUDY    40  38  96 CALM      30.37S
WAYNESBORO*    CLOUDY    39  38  96 SE7       30.34S

$$

WVZ021-048>050-054>055-160500-
EASTERN WEST VIRGINIA PANHANDLE

CITY           SKY/WX    TMP DP  RH WIND       PRES   REMARKS
MARTINSBURG    CLOUDY    33  26  75 CALM      30.39F
PETERSBURG*    CLOUDY    40  35  82 N3        30.37S

$$

VAZ036>039-050-160500-
CENTRAL FOOTHILLS

CITY           SKY/WX    TMP DP  RH WIND       PRES   REMARKS
CHARLOTTESVILL LGT RAIN  42  40  92 CALM      30.38F
CULPEPER*      CLOUDY    40  28  62 CALM      30.43R
ORANGE*        DRIZZLE   41  41 100 CALM      30.42R
GORDONSVILLE*  CLOUDY    41  39  94 CALM      30.40R
WARRENTON*     CLOUDY    40  28  61 CALM      30.41S

$$

VAZ055>057-160500-
NORTH AND CENTRAL PIEDMONT

CITY           SKY/WX    TMP DP  RH WIND       PRES   REMARKS
FREDERICKSBRG* LGT RAIN  41  34  76 CALM      30.42S
STAFFORD*      CLOUDY    38  34  85 CALM      30.46S

$$

NCZ024-NYZ072-PAZ021-071-VAZ022-071-160500-
OTHER REGIONAL OBSERVATIONS

CITY           SKY/WX    TMP DP  RH WIND       PRES   REMARKS
NEW YORK CITY  CLEAR     32  19  58 VRB3      30.43R
PHILADELPHIA   CLOUDY    33  20  58 N12       30.44S WCI  24
PITTSBURGH     PTCLDY    28  20  71 CALM      30.35F
ROANOKE        LGT RAIN  43  42  97 SE6       30.37F FOG
RICHMOND       CLOUDY    43  26  51 CALM      30.41S
RALEIGH        CLOUDY    47  39  74 E6        30.37R

$$

ANZ530>537-160500-
MARINE OBSERVATIONS

STATION/POSITION TIME  TEMP    WIND        PRES
                       AIR SEA DIR/SP/G
                 (UTC) (F)     (DEG/KT/KT) (MB)
THOMAS PT LIGHT  0400   38 39   10/  3/  3   N/A
BALT KEY BRIDGE  0348   36      60/  3/  4 1030.5F
COVE POINT       0348   38      30/  3/  4 1030.5F
LEWISETTA        0348   40 42   30/  2/  3 1029.7F
SOLOMONS ISLAND  0348   39 41   40/  1/  2   N/A
PINEY POINT      0348           70/  3/  4   N/A

$$




USA.gov is the U.S. government's official web portal to all federal, state and local government web resources and services.